Weather History for PATO - November, 2012

Change the Weather History Date:

Thursday, November 15, 2012

  Actual Average Record
Temperature  
Mean Temperature 29 °F -  
Max Temperature 30 °F - - ()
Min Temperature 28 °F - - ()
Degree Days  
Heating Degree Days 36    
Moisture  
Dew Point 29 °F    
Average Humidity 98    
Maximum Humidity 100    
Minimum Humidity 96    
Precipitation  
Precipitation 0.33 in - - ()
Sea Level Pressure  
Sea Level Pressure 29.45 in    
Wind  
Wind Speed 1 mph (WNW)    
Max Wind Speed 6 mph    
Max Gust Speed -    
Visibility 2 miles    
Events Fog , Snow    
T = Trace of Precipitation, MM = Missing Value Source: NWS Daily Summary

Daily Weather History Graph

Daily Weather History Graph

Search for Another Location

Airport or City:

Trip Planner

Search our weather history database for the weather conditions in past years. The results will help you decide how hot, cold, wet, or windy it might be!

Date:

Astronomy

Nov. 15, 2012 Rise Set
Actual Time 9:00 AM AKST 4:19 PM AKST
Civil Twilight 8:09 AM AKST 5:10 PM AKST
Nautical Twilight 7:15 AM AKST 6:03 PM AKST
Astronomical Twilight 6:25 AM AKST 6:53 PM AKST
Moon 11:30 AM AKST (11/15) 5:58 PM AKST (11/15)
Length of Visible Light 9h 00m
Length of Day
7h 18m
Waxing Crescent, 6% of the Moon is Illuminated
Nov 15
Waxing Crescent
Nov 20
First Quarter
Nov 28
Full
Dec 6
Last Quarter
Dec 12
New

Hourly Weather History & Observations

Time (AKST) Temp. Windchill Dew Point Humidity Pressure Visibility Wind Dir Wind Speed Gust Speed Precip Events Conditions
12:06 AM 28.0 °F - 27.0 °F 96% 29.35 in 2.5 mi Calm Calm - 0.00 in Snow Light Snow
12:14 AM 28.0 °F - 27.0 °F 96% 29.35 in 3.0 mi Calm Calm - 0.00 in Snow Light Snow
12:33 AM 28.0 °F - 27.0 °F 96% 29.35 in 2.5 mi Calm Calm - 0.00 in Snow Light Snow
12:45 AM 28.0 °F - 27.0 °F 96% 29.36 in 1.5 mi Calm Calm - 0.01 in Snow Light Snow
12:53 AM 28.0 °F - 27.0 °F 96% 29.36 in 0.8 mi Calm Calm - 0.02 in Snow Light Snow
1:08 AM 28.0 °F - 27.0 °F 96% 29.36 in 1.2 mi Calm Calm - 0.01 in Snow Light Snow
1:27 AM 28.0 °F - 27.0 °F 96% 29.36 in 1.5 mi Calm Calm - 0.02 in Snow Light Snow
1:38 AM 28.0 °F - 27.0 °F 96% 29.36 in 2.5 mi Calm Calm - 0.02 in Snow Light Snow
1:53 AM 28.0 °F - 27.0 °F 96% 29.37 in 2.0 mi Calm Calm - 0.02 in Snow Light Snow
2:02 AM 28.0 °F - 27.0 °F 96% 29.36 in 1.2 mi Calm Calm - 0.00 in Snow Light Snow
2:43 AM 28.0 °F - 27.0 °F 96% 29.37 in 1.8 mi Calm Calm - 0.02 in Snow Light Snow
3:53 AM 28.9 °F - 28.0 °F 96% 29.39 in 1.5 mi Calm Calm - 0.02 in Snow Light Snow
4:53 AM 28.9 °F - 28.0 °F 96% 29.39 in 1.5 mi Calm Calm - 0.03 in Snow Light Snow
5:15 AM 28.9 °F - 28.0 °F 96% 29.39 in 0.8 mi Calm Calm - 0.02 in Snow Light Snow
5:22 AM 28.9 °F - 28.0 °F 96% 29.39 in 1.5 mi Calm Calm - 0.02 in Snow Light Snow
6:08 AM 28.9 °F - 28.0 °F 96% 29.40 in 2.0 mi Calm Calm - 0.00 in Snow Light Snow
6:39 AM 28.9 °F - 28.0 °F 96% 29.41 in 2.0 mi Calm Calm - 0.00 in Snow Light Snow
6:53 AM 28.9 °F - 28.0 °F 96% 29.42 in 2.0 mi Calm Calm - 0.01 in Snow Light Snow
7:02 AM 28.9 °F - 28.0 °F 96% 29.41 in 1.8 mi Calm Calm - 0.00 in Snow Light Snow
7:18 AM 28.9 °F 25.2 °F 28.0 °F 96% 29.42 in 2.0 mi WNW 3.5 mph - 0.00 in Snow Light Snow
7:26 AM 28.9 °F 25.2 °F 28.0 °F 96% 29.42 in 2.5 mi West 3.5 mph - 0.00 in Snow Light Snow
7:35 AM 28.9 °F - 28.0 °F 96% 29.42 in 2.5 mi Calm Calm - 0.00 in Snow Light Snow
7:53 AM 28.9 °F 25.2 °F 28.0 °F 96% 29.43 in 2.5 mi WNW 3.5 mph - 0.01 in Snow Light Snow
8:02 AM 28.9 °F 25.2 °F 28.0 °F 96% 29.43 in 3.0 mi West 3.5 mph - 0.00 in Snow Light Snow
8:29 AM 28.9 °F - 28.0 °F 96% 29.43 in 4.0 mi Calm Calm - 0.00 in   Overcast
8:43 AM 28.9 °F - 28.0 °F 96% 29.43 in 1.8 mi Calm Calm - 0.00 in Snow Light Snow
8:53 AM 28.9 °F - 28.0 °F 96% 29.44 in 2.5 mi Calm Calm - 0.00 in Snow Light Snow
9:10 AM 28.9 °F - 28.0 °F 96% 29.44 in 1.5 mi Calm Calm - 0.01 in Snow Light Snow
9:38 AM 28.9 °F - 28.0 °F 96% 29.44 in 0.8 mi Calm Calm - 0.02 in Snow Light Snow
9:48 AM 28.4 °F - 28.4 °F 100% 29.45 in 0.5 mi Calm Calm - 0.02 in Fog , Snow Snow
9:53 AM 28.9 °F - 28.0 °F 96% 29.45 in 0.5 mi Calm Calm - 0.03 in Fog , Snow Snow
10:01 AM 28.9 °F - 28.0 °F 96% 29.44 in 1.0 mi Calm Calm - 0.00 in Snow Light Snow
10:18 AM 28.9 °F - 28.0 °F 96% 29.44 in 0.8 mi Calm Calm - 0.00 in Snow Light Snow
10:41 AM 28.9 °F - 28.9 °F 100% 29.45 in 1.0 mi Calm Calm - 0.01 in Snow Light Snow
10:53 AM 28.9 °F - 28.9 °F 100% 29.46 in 1.5 mi Calm Calm - 0.01 in Snow Light Snow
11:21 AM 28.9 °F - 28.9 °F 100% 29.45 in 2.5 mi Calm Calm - 0.00 in Snow Light Snow
11:31 AM 28.9 °F 25.2 °F 28.9 °F 100% 29.46 in 1.8 mi WNW 3.5 mph - 0.00 in Snow Light Snow
11:48 AM 28.4 °F 24.6 °F 28.4 °F 100% 29.46 in 2.0 mi Variable 3.5 mph - 0.01 in Snow Light Snow
11:53 AM 28.9 °F - 28.9 °F 100% 29.47 in 1.5 mi Calm Calm - 0.01 in Snow Light Snow
12:10 PM 28.9 °F - 28.9 °F 100% 29.46 in 2.5 mi Calm Calm - 0.00 in Snow Light Snow
12:38 PM 30.0 °F - 30.0 °F 100% 29.46 in 1.8 mi Calm Calm - 0.00 in Snow Light Snow
12:53 PM 30.0 °F - 28.9 °F 96% 29.46 in 1.0 mi Calm Calm - 0.00 in Snow Light Snow
1:12 PM 30.0 °F - 30.0 °F 100% 29.46 in 2.5 mi Calm Calm - 0.01 in Snow Light Snow
1:24 PM 30.0 °F - 30.0 °F 100% 29.46 in 1.2 mi Calm Calm - 0.01 in Snow Light Snow
1:53 PM 30.0 °F - 30.0 °F 100% 29.46 in 1.8 mi Calm Calm - 0.01 in Snow Light Snow
2:08 PM 30.0 °F - 30.0 °F 100% 29.46 in 2.0 mi Calm Calm - 0.00 in   Overcast
2:17 PM 30.0 °F 26.5 °F 30.0 °F 100% 29.46 in 1.5 mi Variable 3.5 mph - 0.01 in Snow Light Snow
2:53 PM 30.0 °F 26.5 °F 30.0 °F 100% 29.47 in 3.0 mi WNW 3.5 mph - 0.01 in   Overcast
3:01 PM 30.0 °F 26.5 °F 30.0 °F 100% 29.46 in 1.8 mi West 3.5 mph - 0.00 in Snow Light Snow
3:20 PM 30.0 °F 26.5 °F 30.0 °F 100% 29.46 in 2.0 mi Variable 3.5 mph - 0.00 in Snow Light Snow
3:37 PM 30.0 °F - 30.0 °F 100% 29.46 in 1.5 mi Calm Calm - 0.01 in Snow Light Snow
3:48 PM 30.2 °F - 30.2 °F 100% 29.47 in 2.0 mi Calm Calm - 0.01 in Snow Light Snow
3:53 PM 30.0 °F - 30.0 °F 100% 29.47 in 1.2 mi Calm Calm - 0.01 in Snow Light Snow
4:25 PM 30.0 °F - 30.0 °F 100% 29.47 in 0.8 mi Calm Calm - 0.02 in Snow Light Snow
4:38 PM 30.0 °F - 30.0 °F 100% 29.48 in 1.0 mi Calm Calm - 0.03 in Snow Light Snow
4:50 PM 30.2 °F - 30.2 °F 100% 29.48 in 0.8 mi Calm Calm - 0.04 in Snow Light Snow
4:53 PM 30.0 °F - 30.0 °F 100% 29.49 in 1.0 mi Calm Calm - 0.04 in Snow Light Snow
5:06 PM 30.0 °F 26.5 °F 30.0 °F 100% 29.48 in 0.5 mi NW 3.5 mph - 0.03 in Fog , Snow Snow
5:23 PM 30.0 °F - 30.0 °F 100% 29.49 in 1.0 mi Calm Calm - 0.05 in Snow Light Snow
5:53 PM 30.0 °F 25.2 °F 28.9 °F 96% 29.50 in 2.0 mi West 4.6 mph - 0.06 in Snow Light Snow
6:20 PM 28.9 °F 23.9 °F 28.9 °F 100% 29.51 in 4.0 mi WNW 4.6 mph - 0.00 in Snow Light Snow
6:35 PM 28.9 °F 25.2 °F 28.9 °F 100% 29.51 in 3.0 mi Variable 3.5 mph - 0.00 in Snow Light Snow
6:40 PM 28.9 °F 23.9 °F 28.9 °F 100% 29.51 in 2.5 mi West 4.6 mph - 0.00 in Snow Light Snow
6:49 PM 28.4 °F 22.2 °F 28.4 °F 100% 29.51 in 1.0 mi West 5.8 mph - 0.01 in Snow Light Snow
6:53 PM 28.9 °F 25.2 °F 28.9 °F 100% 29.52 in 1.2 mi Variable 3.5 mph - 0.01 in Snow Light Snow
7:12 PM 28.9 °F 25.2 °F 28.9 °F 100% 29.52 in 3.0 mi WNW 3.5 mph - 0.01 in Snow Light Snow
7:53 PM 28.9 °F 23.9 °F 28.9 °F 100% 29.53 in 4.0 mi West 4.6 mph - 0.01 in Snow Light Snow
8:13 PM 28.9 °F 23.9 °F 28.9 °F 100% 29.54 in 2.5 mi West 4.6 mph - 0.00 in Snow Light Snow
8:20 PM 28.9 °F 23.9 °F 28.9 °F 100% 29.54 in 2.0 mi Variable 4.6 mph - 0.01 in Snow Light Snow
8:48 PM 28.4 °F - 28.4 °F 100% 29.55 in 1.5 mi Calm Calm - 0.02 in Snow Light Snow
8:53 PM 28.9 °F - 28.9 °F 100% 29.55 in 1.5 mi Calm Calm - 0.02 in Snow Light Snow
9:00 PM 28.9 °F - 28.0 °F 96% 29.55 in 3.0 mi Calm Calm - 0.00 in Snow Light Snow
9:18 PM 28.9 °F - 28.0 °F 96% 29.55 in 4.0 mi Calm Calm - 0.00 in Snow Light Snow
9:37 PM 28.0 °F 24.2 °F 28.0 °F 100% 29.56 in 5.0 mi WNW 3.5 mph - 0.00 in   Overcast
9:53 PM 28.0 °F 22.8 °F 28.0 °F 100% 29.57 in 6.0 mi West 4.6 mph - 0.00 in   Overcast
10:53 PM 28.0 °F 24.2 °F 28.0 °F 100% 29.58 in 5.0 mi WNW 3.5 mph - 0.00 in   Overcast
11:53 PM 28.0 °F 24.2 °F 27.0 °F 96% 29.59 in 6.0 mi WNW 3.5 mph - N/A   Overcast